Location: Caltech
(34.1382°N, 118.1253°W)
Time: 14:09:27
(UTC-07:00)

Hamsat - Visible Passes

Search period start: 29 May 2016 00:00
Search period end: 08 June 2016 00:00
Orbit: 587 x 619 km, 97.6° (Epoch: 28 May)

Date Brightness Start Highest point End Pass type
(mag) Time Alt. Az. Time Alt. Az. Time Alt. Az.
30 May ? 04:25:29 10° ENE 04:27:43 14° E 04:29:55 10° SE visible
31 May ? 04:36:48 10° NE 04:39:55 19° E 04:43:00 10° SE visible
01 Jun ? 04:48:25 10° NE 04:52:05 26° E 04:55:43 10° SSE visible
02 Jun ? 05:00:13 10° NNE 05:04:15 37° E 05:08:14 10° SSE visible
03 Jun ? 05:12:08 10° NNE 05:16:23 52° E 05:20:34 10° S visible
06 Jun ? 04:16:27 10° E 04:16:35 10° E 04:16:43 10° E visible
07 Jun ? 04:26:25 10° ENE 04:28:47 14° E 04:31:09 10° SE visible
